Location: Castiglione Fibocchi
(43.5333°N, 11.7667°E)
Time: 18:16:13
(UTC+00:00)

CZ-2C R/B - Pass Details

Date: 15 August 2020
Orbit: 501 x 568 km, 97.7° (Epoch: 17 September)

Event Time Altitude Azimuth Distance (km) Brightness Sun altitude
Rises 02:08:56 0° 22° (NNE) 2,671 7.5 -20.5°
Reaches altitude 10° 02:11:13 10° 32° (NNE) 1,765 6.5 -20.2°
Maximum altitude 02:14:40 32° 97° (E) 895 4.2 -19.7°
Enters shadow 02:16:59 17° 152° (SSE) 1,352 4.6 -19.4°
